Simultaneous Nadir Overpasses (SNOs) Predictions

Prediction of SNOs between GOES-16 and NOAA-20 Satellite Orbit:

Table of predicted SNOs for the next 14.0 days since TLE Epoch: 6/18/2021
Index Date Time (GOES-16) GOES-16 Lat,Lon NOAA-20 Lat,Lon Distance(km) Time Diff (sec)
1 06/19/2021 06:20:16 -0.03, -75.21 -0.37, -73.62 181.61 80
2 06/20/2021 18:39:33 0.04, -75.19 -0.78, -78.93 425.53 80
3 06/21/2021 18:23:28 0.04, -75.18 0.24, -74.40 89.32 80
4 06/24/2021 06:23:51 -0.05, -75.14 -0.04, -75.14 0.76 80
5 06/26/2021 18:27:03 0.05, -75.11 -0.14, -75.91 91.18 80
6 06/27/2021 18:10:59 0.05, -75.11 0.88, -71.38 424.45 80
7 06/29/2021 06:30:07 -0.06, -75.10 0.28, -76.66 177.50 80
8 06/30/2021 06:14:02 -0.05, -75.09 -0.74, -72.13 338.60 80
9 07/01/2021 18:33:19 0.06, -75.09 -0.45, -77.43 266.41 80
